Simultaneous Nadir Overpasses (SNOs) Predictions

Prediction of SNOs between AQUA and GOES-15 Satellite Orbit:

Table of predicted SNOs for the next 14.0 days since TLE Epoch: 12/27/2019
Index Date Time (AQUA) AQUA Lat,Lon GOES-15 Lat,Lon Distance(km) Time Diff (sec)
1 12/28/2019 09:54:48 -0.74,-124.95 -0.03,-128.23 373.29 80
2 12/28/2019 22:16:12 -0.39,-130.13 0.04,-128.21 219.58 80
3 12/30/2019 22:04:01 0.25,-127.18 0.04,-128.25 121.20 80
4 12/31/2019 10:25:17 0.80,-132.34 -0.05,-128.29 460.94 80
5 01/01/2020 21:51:50 0.90,-124.23 0.04,-128.29 461.74 80
6 01/02/2020 10:13:06 0.15,-129.39 -0.05,-128.33 120.38 80
7 01/04/2020 10:00:54 -0.44,-126.42 -0.05,-128.36 219.89 80
8 01/04/2020 22:22:19 -0.63,-131.62 0.05,-128.34 372.81 80
9 01/06/2020 22:10:07 -0.04,-128.66 0.05,-128.37 33.37 80
10 01/08/2020 21:57:56 0.63,-125.70 0.04,-128.39 305.47 80
11 01/09/2020 10:19:11 0.48,-130.86 -0.04,-128.42 277.59 80




NCC Satellite Simultaneous Nadir Overpasses (SNOs) Prediction Service
